Location: Edinburgh
(55.9500°N, 3.1600°W)
Time: 12:29:19
(UTC+01:00)

Envisat - Pass Details

Date: 13 October 2017
Orbit: 764 x 766 km, 98.2° (Epoch: 24 October)

Event Time Altitude Azimuth Distance (km) Brightness Sun altitude
Exits shadow 20:56:20 24° 178° (S) 1,532 4.3 -22.9°
Maximum altitude 20:59:22 68° 257° (WSW) 825 3.2 -23.3°
Drops below altitude 10° 21:04:28 10° 341° (NNW) 2,317 6.0 -23.9°
Sets 21:06:48 0° 344° (NNW) 3,247 6.8 -24.2°
